{"data":{"norad_id":65840,"intl_designator":"2025-221T","name":"STARLINK-35364","alt_names":[],"object_type":"PAYLOAD","status":"ACTIVE","operator":null,"country":"US","launch_date":"2025-09-29","launch_site_code":"AFWTR","launch_vehicle":null,"mission":null,"orbit_class":"UNKNOWN","rcs_meters":null,"size_class":null,"mass_kg":null,"dimensions":null,"purposes":["comms"],"wikipedia_slug":null,"has_3d_model":false,"image_url":null,"decayed_at":null,"tle_current":{"epoch":"2026-09-20T22:20:27.153312Z","epoch_age_seconds":68927,"freshness":"FRESH","line1":"1 65840U 25221T   26263.93086983  .00011519  00000+0  35180-3 0  9996","line2":"2 65840  53.1573 257.3568 0001600  93.2900 266.8285 15.34376325 54684","mean_motion":15.34376325,"eccentricity":0.00016,"inclination_deg":53.1573,"raan_deg":257.3568,"arg_perigee_deg":93.29,"mean_anomaly_deg":266.8285,"bstar":0.0003518,"rev_number":5468,"period_min":93.849206126144,"perigee_km":461.67906250386,"apogee_km":463.86815389848,"semimajor_km":6840.9106082012,"source":"CELESTRAK","updated_at":"2026-09-21T09:00:35.722691Z"}}}